Location: Prairie Dale
(45.6972°N, 104.5033°W)
Time: 22:10:43
(UTC+00:00)

ESTCUBE 1 - Pass Details

Date: 29 June 2022
Orbit: 645 x 657 km, 97.9° (Epoch: 16 August)

Event Time Altitude Azimuth Distance (km) Brightness Sun altitude
Exits shadow 04:21:44 17° 127° (SE) 1,647 ? -12.1°
Maximum altitude 04:24:42 36° 69° (ENE) 1,030 ? -12.4°
Drops below altitude 10° 04:28:47 10° 3° (N) 2,059 ? -12.8°
Sets 04:31:08 0° 355° (N) 2,976 ? -13.1°
